Weather History for PAOH - December, 2013

Change the Weather History Date:

Thursday, December 26, 2013

  Actual Average Record
Temperature  
Mean Temperature 34 °F -  
Max Temperature 37 °F 31 °F 50 °F (1999)
Min Temperature 32 °F 26 °F 15 °F (1998)
Degree Days  
Heating Degree Days 30    
Moisture  
Dew Point 35 °F    
Average Humidity 100    
Maximum Humidity 100    
Minimum Humidity 100    
Precipitation  
Precipitation 0.01 in - - ()
Sea Level Pressure  
Sea Level Pressure 29.64 in    
Wind  
Wind Speed 1 mph (East)    
Max Wind Speed 12 mph    
Max Gust Speed -    
Visibility 6 miles    
Events Fog , Rain    
Averages and records for this station are not official NWS values.
T = Trace of Precipitation, MM = Missing Value Source: NWS Daily Summary

Daily Weather History Graph

Daily Weather History Graph

Search for Another Location

Airport or City:

Trip Planner

Search our weather history database for the weather conditions in past years. The results will help you decide how hot, cold, wet, or windy it might be!

Date:

Astronomy

Dec. 26, 2013 Rise Set
Actual Time 8:48 AM AKST 3:16 PM AKST
Civil Twilight 7:56 AM AKST 4:08 PM AKST
Nautical Twilight 7:03 AM AKST 5:01 PM AKST
Astronomical Twilight 6:15 AM AKST 5:49 PM AKST
Moon 1:23 AM AKST (12/26) 11:52 AM AKST (12/26)
Length of Visible Light 8h 11m
Length of Day
6h 27m
Last Quarter, 37% of the Moon is Illuminated
Dec 26
Last Quarter
Jan 1
New
Jan 7
First Quarter
Jan 15
Full
Jan 23
Last Quarter

Hourly Weather History & Observations

Time (AKST) Temp. Windchill Dew Point Humidity Pressure Visibility Wind Dir Wind Speed Gust Speed Precip Events Conditions
12:11 AM 35.6 °F - 35.6 °F 100% 29.66 in 5.0 mi Calm Calm - 0.00 in Rain Light Rain
12:41 AM 33.8 °F - 33.8 °F 100% 29.66 in 6.0 mi Calm Calm - 0.01 in Rain Light Rain
12:56 AM 34.0 °F 31.0 °F 34.0 °F 100% 29.66 in 7.0 mi East 3.5 mph - 0.01 in Rain Light Rain
1:31 AM 33.8 °F - 33.8 °F 100% 29.64 in 10.0 mi Calm Calm - 0.00 in   Mostly Cloudy
1:56 AM 34.0 °F - 34.0 °F 100% 29.65 in 10.0 mi Calm Calm - 0.00 in   Mostly Cloudy
2:29 AM 33.8 °F - 33.8 °F 100% 29.63 in 3.0 mi Calm Calm - N/A   Overcast
2:41 AM 33.8 °F 30.8 °F 33.8 °F 100% 29.63 in 2.5 mi East 3.5 mph - N/A   Overcast
3:30 AM 33.8 °F - 33.8 °F 100% 29.63 in 9.0 mi Calm Calm - N/A   Overcast
3:56 AM 34.0 °F 31.0 °F 34.0 °F 100% 29.63 in 2.5 mi ENE 3.5 mph - N/A   Overcast
4:17 AM 33.8 °F - 33.8 °F 100% 29.62 in 1.2 mi Calm Calm - N/A   Overcast
4:34 AM 33.8 °F - 33.8 °F 100% 29.62 in 0.8 mi Calm Calm - N/A   Overcast
4:56 AM 34.0 °F - 34.0 °F 100% 29.62 in 0.5 mi Calm Calm - N/A Fog Fog
5:16 AM 33.8 °F - 33.8 °F 100% 29.61 in 0.8 mi Calm Calm - N/A   Overcast
5:44 AM 33.8 °F - 33.8 °F 100% 29.61 in 1.2 mi Calm Calm - N/A   Overcast
5:56 AM 32.9 °F 29.8 °F 32.9 °F 100% 29.62 in 0.8 mi ENE 3.5 mph - N/A   Overcast
6:04 AM 33.8 °F - 33.8 °F 100% 29.61 in 1.2 mi Calm Calm - N/A   Overcast
6:23 AM 33.8 °F - 33.8 °F 100% 29.61 in 1.0 mi Calm Calm - N/A   Overcast
6:37 AM 33.8 °F - 33.8 °F 100% 29.62 in 1.2 mi Calm Calm - N/A   Overcast
6:56 AM 32.9 °F - 32.9 °F 100% 29.62 in 1.5 mi Calm Calm - N/A   Overcast
7:10 AM 33.8 °F - 33.8 °F 100% 29.61 in 3.0 mi Calm Calm - N/A   Overcast
7:32 AM 33.8 °F - 33.8 °F 100% 29.61 in 10.0 mi Calm Calm - N/A   Overcast
7:56 AM 32.9 °F - 32.9 °F 100% 29.62 in 10.0 mi Calm Calm - N/A   Overcast
8:16 AM 33.8 °F - 33.8 °F 100% 29.62 in 10.0 mi Calm Calm - N/A   Mostly Cloudy
8:56 AM 33.8 °F - 33.8 °F 100% 29.63 in 10.0 mi Calm Calm - N/A   Overcast
9:12 AM 33.8 °F - 33.8 °F 100% 29.64 in 10.0 mi Calm Calm - N/A   Overcast
9:56 AM 32.9 °F 29.8 °F 32.9 °F 100% 29.65 in 10.0 mi ENE 3.5 mph - N/A   Mostly Cloudy
10:56 AM 32.9 °F 29.8 °F 32.9 °F 100% 29.65 in 10.0 mi NE 3.5 mph - N/A   Overcast
11:56 AM 35.6 °F 32.8 °F 35.6 °F 100% 29.65 in 10.0 mi ESE 3.5 mph - N/A   Overcast
12:56 PM 36.0 °F - 36.0 °F 100% 29.65 in 10.0 mi Calm Calm - 0.00 in   Overcast
1:56 PM 36.0 °F 33.3 °F 36.0 °F 100% 29.64 in 2.0 mi Variable 3.5 mph - 0.00 in   Mostly Cloudy
2:15 PM 35.6 °F - 35.6 °F 100% 29.63 in 3.0 mi Calm Calm - 0.00 in   Mostly Cloudy
2:29 PM 37.4 °F - 37.4 °F 100% 29.64 in 2.5 mi Calm Calm - 0.00 in   Mostly Cloudy
2:56 PM 37.4 °F - 37.4 °F 100% 29.64 in 3.0 mi Calm Calm - N/A Rain Light Rain
3:03 PM 35.6 °F 32.8 °F 35.6 °F 100% 29.64 in 1.8 mi Variable 3.5 mph - 0.00 in   Mostly Cloudy
3:07 PM 35.6 °F 32.8 °F 35.6 °F 100% 29.64 in 1.0 mi North 3.5 mph - 0.00 in   Mostly Cloudy
3:23 PM 35.6 °F - 35.6 °F 100% 29.64 in 1.5 mi Calm Calm - 0.00 in Rain Light Rain
3:56 PM 34.9 °F - 34.9 °F 100% 29.65 in 2.5 mi Calm Calm - 0.00 in Rain Light Rain
4:09 PM 35.6 °F - 35.6 °F 100% 29.65 in 8.0 mi Calm Calm - 0.00 in   Overcast
4:56 PM 34.9 °F - 34.9 °F 100% 29.65 in 9.0 mi Calm Calm - 0.00 in   Overcast
5:56 PM 33.8 °F - 33.8 °F 100% 29.64 in 10.0 mi Calm Calm - N/A   Overcast
6:56 PM 34.9 °F - 34.9 °F 100% 29.65 in 10.0 mi Calm Calm - N/A   Overcast
7:09 PM 33.8 °F - 33.8 °F 100% 29.65 in 10.0 mi Calm Calm - N/A   Overcast
7:30 PM 33.8 °F 30.8 °F 33.8 °F 100% 29.65 in 10.0 mi East 3.5 mph - N/A   Overcast
7:56 PM 34.0 °F 31.0 °F 34.0 °F 100% 29.66 in 10.0 mi East 3.5 mph - N/A   Overcast
8:56 PM 37.4 °F 29.8 °F 37.4 °F 100% 29.66 in 10.0 mi East 11.5 mph - N/A   Mostly Cloudy
9:56 PM 36.9 °F 29.1 °F 36.9 °F 100% 29.68 in 10.0 mi East 11.5 mph - N/A   Overcast
10:56 PM 36.9 °F 30.1 °F 36.9 °F 100% 29.70 in 10.0 mi East 9.2 mph - 0.00 in   Overcast
11:56 PM 37.4 °F 30.8 °F 37.4 °F 100% 29.71 in 10.0 mi East 9.2 mph - N/A   Overcast